Location: Narrabri
(30.3170°S, 149.7830°E)
Time: 15:31:17
(UTC+11:00)

Vanguard 2 - Visible Passes

Search period start: 14 December 2017 00:00
Search period end: 24 December 2017 00:00
Orbit: 553 x 2939 km, 32.9° (Epoch: 13 December)

Date Brightness Start Highest point End Pass type
(mag) Time Alt. Az. Time Alt. Az. Time Alt. Az.
14 Dec 9.4 02:48:35 48° N 02:50:41 52° NE 03:05:00 10° ESE visible
14 Dec 10.0 04:49:58 11° WNW 05:01:43 89° SSW 05:19:32 10° ESE visible
15 Dec 10.7 01:03:59 17° ENE 01:03:59 17° ENE 01:07:46 10° E visible
15 Dec 9.3 03:05:22 48° NNW 03:08:37 65° NNE 03:23:41 10° ESE visible
15 Dec 10.1 05:07:56 10° W 05:20:15 84° S 05:38:11 10° E visible
16 Dec 10.3 01:20:45 25° ENE 01:20:45 25° ENE 01:27:19 10° E visible
16 Dec 9.4 03:22:09 41° NW 03:26:43 77° NNE 03:42:18 10° ESE visible
16 Dec 10.2 05:26:14 10° W 05:38:51 81° S 05:56:53 10° E visible
17 Dec 9.8 01:37:33 36° ENE 01:37:33 36° ENE 01:46:22 10° ESE visible
17 Dec 9.5 03:38:56 31° WNW 03:44:58 87° NNE 04:00:55 10° ESE visible
18 Dec 9.3 01:54:19 50° NE 01:54:19 50° NE 02:05:07 10° ESE visible
18 Dec 9.6 03:55:42 22° W 04:03:22 86° S 04:19:34 10° E visible
19 Dec 8.9 02:11:05 67° NNE 02:11:05 67° NNE 02:23:45 10° ESE visible
19 Dec 9.7 04:12:29 14° W 04:21:50 81° S 04:38:16 10° E visible
20 Dec 10.6 00:26:28 14° E 00:26:28 14° E 00:28:09 10° E visible
20 Dec 8.7 02:27:52 70° NW 02:29:06 80° NNE 02:42:20 10° ESE visible
20 Dec 9.8 04:29:54 10° W 04:40:20 80° S 04:57:01 10° E visible
21 Dec 10.2 00:43:16 22° E 00:43:16 22° E 00:47:03 10° E visible
21 Dec 8.9 02:44:40 53° WNW 02:47:22 89° S 03:00:56 10° ESE visible
21 Dec 9.9 04:48:08 10° W 04:58:52 81° S 05:15:46 10° E visible
22 Dec 9.8 01:00:05 31° E 01:00:05 31° E 01:05:43 10° ESE visible
22 Dec 9.1 03:01:29 37° W 03:05:42 82° S 03:19:35 10° E visible
22 Dec 9.9 05:06:21 10° WSW 05:17:21 85° S 05:34:27 10° E visible
23 Dec 9.3 01:16:56 44° E 01:16:56 44° E 01:24:16 10° ESE visible
23 Dec 9.2 03:18:20 25° W 03:24:06 78° S 03:38:17 10° E visible
23 Dec 10.0 05:24:33 10° WSW 05:35:47 89° NNW 05:53:02 10° ENE visible
